Location: Godiavel Galaoual
(15.2485°N, 12.6604°W)
Time: 20:30:15
(UTC+00:00)

FO-99 - Visible Passes

Search period start: 23 July 2021 00:00
Search period end: 02 August 2021 00:00
Orbit: 473 x 503 km, 97.2° (Epoch: 23 July)

Date Brightness Start Highest point End Pass type
(mag) Time Alt. Az. Time Alt. Az. Time Alt. Az.
23 Jul ? 20:28:18 24° E 20:28:33 24° ENE 20:31:35 10° NNE visible
24 Jul ? 20:04:47 11° E 20:05:23 11° ENE 20:06:28 10° ENE visible
24 Jul ? 21:39:12 21° W 21:39:12 21° W 21:41:29 10° NW visible
25 Jul ? 21:15:42 49° WNW 21:15:42 49° WNW 21:18:53 10° NNW visible
26 Jul ? 20:52:11 60° ENE 20:52:11 60° ENE 20:55:40 10° N visible
27 Jul ? 20:28:40 25° E 20:28:48 25° ENE 20:31:52 10° NNE visible
28 Jul ? 20:05:09 11° E 20:05:37 11° ENE 20:06:51 10° NE visible
28 Jul ? 21:39:35 20° W 21:39:35 20° W 21:41:42 10° NW visible
29 Jul ? 21:16:04 45° WNW 21:16:04 45° WNW 21:19:06 10° NNW visible
30 Jul ? 20:52:33 59° NE 20:52:33 59° NE 20:55:52 10° N visible
31 Jul ? 20:29:01 26° ENE 20:29:01 26° ENE 20:32:05 10° NNE visible
01 Aug ? 20:05:30 12° E 20:05:47 12° ENE 20:07:08 10° NE visible
01 Aug ? 21:39:56 19° WNW 21:39:56 19° WNW 21:41:50 10° NW visible
